Location: El Azufral
(10.3513°N, 67.1528°W)
Time: 19:39:18
(UTC+00:00)

Meteor 1-31 Rocket - Pass Details

Date: 13 June 2024
Orbit: 494 x 512 km, 97.7° (Epoch: 24 July)

Event Time Altitude Azimuth Distance (km) Brightness Sun altitude
Rises 23:04:34 0° 181° (S) 2,590 6.0 -4.0°
Reaches altitude 10° 23:06:43 10° 188° (S) 1,702 5.2 -4.4°
Maximum altitude 23:10:11 40° 259° (W) 741 4.1 -5.2°
Drops below altitude 10° 23:13:37 10° 330° (NNW) 1,690 6.3 -6.0°
Sets 23:15:46 0° 338° (NNW) 2,569 7.0 -6.5°
